| time (UTC) | temp F | wind direction | speed MPH | gust MPH | rain 1hr in | rain 24hr in | rain mn in | humidity % | barometer mb |
| 20260510033518 | 55 | 1.0 | 2.0 | 0.00 | 0.01 | 0.01 | 94 | 1010.8 | |
| 20260510032520 | 56 | 1.0 | 2.0 | 0.00 | 0.01 | 0.01 | 92 | 1010.8 | |
| 20260510031540 | 57 | 1.0 | 2.0 | 0.00 | 0.01 | 0.01 | 91 | 1010.7 | |
| 20260510030519 | 58 | 1.0 | 1.0 | 0.00 | 0.01 | 0.01 | 89 | 1010.7 | |
| 20260510025519 | 59 | 1.0 | 1.0 | 0.00 | 0.01 | 0.01 | 87 | 1010.7 | |
| 20260510024539 | 59 | 1.0 | 2.0 | 0.00 | 0.01 | 0.01 | 86 | 1010.6 | |
| 20260510023557 | 60 | 2.0 | 3.0 | 0.00 | 0.01 | 0.01 | 85 | 1010.5 | |
| 20260510022520 | 60 | 2.0 | 4.0 | 0.00 | 0.01 | 0.01 | 85 | 1010.3 | |
| 20260510021520 | 60 | 1.0 | 1.0 | 0.00 | 0.01 | 0.01 | 85 | 1010.4 | |
| 20260510020517 | 61 | 1.0 | 4.0 | 0.00 | 0.01 | 0.01 | 84 | 1010.4 | |
| 20260510015518 | 61 | 2.0 | 5.0 | 0.00 | 0.01 | 0.01 | 83 | 1010.3 | |
| 20260510014518 | 61 | 2.0 | 5.0 | 0.00 | 0.01 | 0.01 | 82 | 1010.2 | |
| 20260510013518 | 62 | 2.0 | 5.0 | 0.00 | 0.01 | 0.01 | 81 | 1010.0 | |
| 20260510012518 | 62 | 3.0 | 5.0 | 0.00 | 0.01 | 0.01 | 81 | 1009.9 | |
| 20260510011518 | 62 | 3.0 | 5.0 | 0.00 | 0.01 | 0.01 | 80 | 1009.8 | |
| 20260510010538 | 62 | 3.0 | 5.0 | 0.00 | 0.01 | 0.01 | 80 | 1009.6 | |
| 20260510005518 | 63 | 2.0 | 4.0 | 0.00 | 0.01 | 0.01 | 80 | 1009.6 | |
| 20260510004520 | 63 | 1.0 | 2.0 | 0.00 | 0.01 | 0.01 | 78 | 1009.5 | |
| 20260510003519 | 64 | 1.0 | 2.0 | 0.00 | 0.01 | 0.01 | 77 | 1009.5 | |
| 20260510002521 | 65 | 1.0 | 2.0 | 0.00 | 0.01 | 0.01 | 76 | 1009.3 | |
| 20260510001519 | 66 | 1.0 | 2.0 | 0.00 | 0.01 | 0.01 | 74 | 1009.4 | |
| 20260510000516 | 67 | 1.0 | 2.0 | 0.00 | 0.01 | 0.01 | 72 | 1009.3 | |
| 20260509235519 | 68 | 3.0 | 5.0 | 0.00 | 0.01 | 0.01 | 70 | 1009.3 | |
| 20260509234520 | 69 | 1.0 | 2.0 | 0.00 | 0.01 | 0.01 | 68 | 1009.1 | |
| 20260509233700 | 70 | 2.0 | 3.0 | 0.00 | 0.01 | 0.01 | 66 | 1009.1 | |
| 20260509232517 | 71 | 2.0 | 4.0 | 0.00 | 0.01 | 0.01 | 62 | 1008.9 | |
| 20260509231517 | 72 | 1.0 | 2.0 | 0.00 | 0.01 | 0.01 | 58 | 1008.9 | |
| 20260509230517 | 73 | 1.0 | 2.0 | 0.00 | 0.01 | 0.01 | 56 | 1008.9 | |
| 20260509225520 | 73 | 1.0 | 2.0 | 0.00 | 0.01 | 0.01 | 55 | 1008.9 | |
| 20260509224519 | 73 | 2.0 | 3.0 | 0.00 | 0.01 | 0.01 | 55 | 1008.8 | |
| 20260509223541 | 73 | 1.0 | 2.0 | 0.00 | 0.01 | 0.01 | 55 | 1008.9 | |
| 20260509222517 | 72 | 1.0 | 3.0 | 0.00 | 0.01 | 0.01 | 57 | 1008.9 | |
| 20260509221517 | 73 | 2.0 | 3.0 | 0.00 | 0.01 | 0.01 | 56 | 1008.8 | |
| 20260509220517 | 72 | 2.0 | 3.0 | 0.00 | 0.01 | 0.01 | 56 | 1008.9 | |
| 20260509215518 | 71 | 1.0 | 2.0 | 0.00 | 0.01 | 0.01 | 58 | 1008.9 | |
| 20260509214540 | 69 | 1.0 | 2.0 | 0.00 | 0.01 | 0.01 | 61 | 1009.0 | |
| 20260509213519 | 70 | 1.0 | 2.0 | 0.00 | 0.01 | 0.01 | 60 | 1009.0 | |
| 20260509212519 | 70 | 2.0 | 3.0 | 0.00 | 0.01 | 0.01 | 58 | 1009.0 | |
| 20260509211520 | 70 | 1.0 | 2.0 | 0.00 | 0.01 | 0.01 | 59 | 1009.0 | |
| 20260509210516 | 70 | 2.0 | 2.0 | 0.00 | 0.01 | 0.01 | 62 | 1009.0 | |
| 20260509205519 | 70 | 1.0 | 3.0 | 0.00 | 0.01 | 0.01 | 60 | 1009.0 | |
| 20260509204520 | 69 | 2.0 | 4.0 | 0.00 | 0.01 | 0.01 | 59 | 1008.9 | |
| 20260509203517 | 69 | 2.0 | 4.0 | 0.00 | 0.01 | 0.01 | 60 | 1008.9 | |
| 20260509202517 | 69 | 1.0 | 3.0 | 0.00 | 0.01 | 0.01 | 60 | 1008.9 | |
| 20260509201558 | 69 | 2.0 | 4.0 | 0.00 | 0.01 | 0.01 | 60 | 1008.9 | |
| 20260509200520 | 68 | 4.0 | 5.0 | 0.00 | 0.01 | 0.01 | 61 | 1009.0 | |
| 20260509195520 | 69 | 3.0 | 5.0 | 0.00 | 0.01 | 0.01 | 61 | 1009.0 | |
| 20260509194538 | 69 | 2.0 | 4.0 | 0.00 | 0.01 | 0.01 | 61 | 1009.2 | |
| 20260509193518 | 68 | 2.0 | 3.0 | 0.00 | 0.01 | 0.01 | 61 | 1009.4 | |
| 20260509192518 | 68 | 2.0 | 3.0 | 0.00 | 0.01 | 0.01 | 61 | 1009.6 | |
| 20260509191518 | 67 | 1.0 | 3.0 | 0.00 | 0.01 | 0.01 | 61 | 1009.7 | |
| 20260509190519 | 67 | 2.0 | 4.0 | 0.00 | 0.01 | 0.01 | 61 | 1009.7 | |
| 20260509185519 | 67 | 2.0 | 4.0 | 0.00 | 0.01 | 0.01 | 61 | 1009.9 | |
| 20260509184519 | 67 | 3.0 | 4.0 | 0.00 | 0.01 | 0.01 | 61 | 1009.8 | |
| 20260509183519 | 66 | 3.0 | 4.0 | 0.00 | 0.01 | 0.01 | 62 | 1009.9 | |
| 20260509182519 | 66 | 1.0 | 3.0 | 0.00 | 0.01 | 0.01 | 62 | 1010.0 | |
| 20260509181518 | 66 | 1.0 | 2.0 | 0.00 | 0.01 | 0.01 | 61 | 1010.4 | |
| 20260509180519 | 66 | 1.0 | 2.0 | 0.00 | 0.01 | 0.01 | 60 | 1010.7 | |
| 20260509175520 | 65 | 1.0 | 2.0 | 0.00 | 0.01 | 0.01 | 60 | 1010.8 | |
| 20260509174537 | 65 | 2.0 | 3.0 | 0.00 | 0.01 | 0.01 | 60 | 1010.9 | |
| 20260509173517 | 65 | 1.0 | 3.0 | 0.00 | 0.01 | 0.01 | 61 | 1011.0 | |
| 20260509172559 | 64 | 1.0 | 2.0 | 0.00 | 0.01 | 0.01 | 61 | 1011.0 | |
| 20260509171520 | 64 | 1.0 | 2.0 | 0.00 | 0.01 | 0.01 | 62 | 1011.1 | |
| 20260509170538 | 63 | 2.0 | 3.0 | 0.00 | 0.01 | 0.01 | 62 | 1011.1 | |
| 20260509165521 | 64 | 2.0 | 4.0 | 0.00 | 0.01 | 0.01 | 63 | 1011.2 | |
| 20260509164519 | 64 | 2.0 | 4.0 | 0.00 | 0.01 | 0.01 | 63 | 1011.1 | |
| 20260509163559 | 65 | 3.0 | 4.0 | 0.00 | 0.01 | 0.01 | 61 | 1011.2 | |
| 20260509162522 | 64 | 1.0 | 3.0 | 0.00 | 0.01 | 0.01 | 61 | 1011.1 | |
| 20260509161519 | 65 | 2.0 | 4.0 | 0.00 | 0.01 | 0.01 | 61 | 1011.2 | |
| 20260509160539 | 64 | 2.0 | 4.0 | 0.00 | 0.01 | 0.01 | 63 | 1011.2 | |
| 20260509155541 | 64 | 2.0 | 3.0 | 0.00 | 0.01 | 0.01 | 60 | 1011.2 | |
| 20260509154537 | 65 | 1.0 | 3.0 | 0.00 | 0.01 | 0.01 | 60 | 1011.3 | |
| 20260509153519 | 65 | 2.0 | 3.0 | 0.00 | 0.01 | 0.01 | 59 | 1011.3 | |
| 20260509152524 | 63 | 1.0 | 2.0 | 0.00 | 0.01 | 0.01 | 61 | 1011.3 | |
| 20260509151540 | 62 | 2.0 | 4.0 | 0.00 | 0.01 | 0.01 | 61 | 1011.4 | |
| 20260509150519 | 62 | 2.0 | 4.0 | 0.00 | 0.01 | 0.01 | 61 | 1011.4 | |
| 20260509145518 | 61 | 3.0 | 4.0 | 0.00 | 0.01 | 0.01 | 61 | 1011.6 | |
| 20260509144517 | 61 | 2.0 | 4.0 | 0.00 | 0.01 | 0.01 | 62 | 1011.7 | |
| 20260509143518 | 60 | 2.0 | 5.0 | 0.00 | 0.01 | 0.01 | 61 | 1011.8 | |
| 20260509142520 | 60 | 2.0 | 6.0 | 0.00 | 0.01 | 0.01 | 61 | 1011.8 | |
| 20260509141518 | 60 | 2.0 | 4.0 | 0.00 | 0.01 | 0.01 | 62 | 1011.7 | |
| 20260509140519 | 60 | 2.0 | 4.0 | 0.00 | 0.01 | 0.01 | 62 | 1011.7 | |
| 20260509135518 | 60 | 2.0 | 5.0 | 0.00 | 0.01 | 0.01 | 60 | 1011.8 | |
| 20260509134518 | 61 | 3.0 | 4.0 | 0.00 | 0.01 | 0.01 | 61 | 1011.7 | |
| 20260509133518 | 60 | 2.0 | 4.0 | 0.00 | 0.01 | 0.01 | 61 | 1011.6 | |
| 20260509132521 | 60 | 3.0 | 5.0 | 0.00 | 0.01 | 0.01 | 60 | 1011.7 | |
| 20260509131516 | 60 | 3.0 | 5.0 | 0.00 | 0.01 | 0.01 | 60 | 1011.7 | |
| 20260509130519 | 60 | 2.0 | 4.0 | 0.01 | 0.01 | 0.01 | 61 | 1011.7 | |
| 20260509125519 | 60 | 2.0 | 5.0 | 0.01 | 0.01 | 0.01 | 60 | 1011.6 | |
| 20260509124519 | 60 | 2.0 | 5.0 | 0.01 | 0.02 | 0.01 | 60 | 1011.6 | |
| 20260509123519 | 60 | 2.0 | 4.0 | 0.01 | 0.02 | 0.01 | 62 | 1011.7 | |
| 20260509122518 | 59 | 2.0 | 5.0 | 0.01 | 0.02 | 0.01 | 62 | 1011.7 | |
| 20260509121517 | 59 | 1.0 | 3.0 | 0.01 | 0.02 | 0.01 | 62 | 1011.7 | |
| 20260509120520 | 59 | 1.0 | 2.0 | 0.00 | 0.01 | 0.00 | 62 | 1011.6 | |
| 20260509115521 | 59 | 1.0 | 3.0 | 0.00 | 0.01 | 0.00 | 62 | 1011.5 | |
| 20260509114518 | 58 | 1.0 | 2.0 | 0.00 | 0.01 | 0.00 | 62 | 1011.4 | |
| 20260509113517 | 58 | 1.0 | 2.0 | 0.00 | 0.01 | 0.00 | 62 | 1011.3 | |
| 20260509112538 | 57 | 1.0 | 2.0 | 0.00 | 0.01 | 0.00 | 62 | 1011.2 | |
| 20260509111559 | 57 | 1.0 | 3.0 | 0.00 | 0.01 | 0.00 | 61 | 1011.2 | |
| 20260509110518 | 56 | 2.0 | 3.0 | 0.00 | 0.01 | 0.00 | 62 | 1011.1 | |
| 20260509105518 | 56 | 1.0 | 3.0 | 0.00 | 0.01 | 0.00 | 62 | 1011.0 | |
| 20260509104539 | 56 | 1.0 | 2.0 | 0.00 | 0.01 | 0.00 | 61 | 1011.0 | |
| 20260509103539 | 57 | 1.0 | 3.0 | 0.00 | 0.01 | 0.00 | 61 | 1010.9 | |
| 20260509102520 | 57 | 1.0 | 2.0 | 0.00 | 0.01 | 0.00 | 60 | 1011.0 | |
| 20260509101519 | 57 | 1.0 | 3.0 | 0.00 | 0.01 | 0.00 | 59 | 1010.9 | |
| 20260509100519 | 57 | 1.0 | 3.0 | 0.00 | 0.01 | 0.00 | 59 | 1010.8 | |
| 20260509095519 | 57 | 1.0 | 3.0 | 0.00 | 0.01 | 0.00 | 59 | 1010.8 | |
| 20260509094517 | 57 | 2.0 | 3.0 | 0.00 | 0.01 | 0.00 | 59 | 1010.9 | |
| 20260509093519 | 57 | 2.0 | 3.0 | 0.00 | 0.01 | 0.00 | 59 | 1011.0 | |
| 20260509092542 | 57 | 1.0 | 2.0 | 0.00 | 0.01 | 0.00 | 60 | 1011.0 | |
| 20260509091520 | 57 | 1.0 | 2.0 | 0.00 | 0.01 | 0.00 | 60 | 1011.0 | |
| 20260509090517 | 57 | 1.0 | 2.0 | 0.00 | 0.01 | 0.00 | 60 | 1011.1 | |
| 20260509085517 | 57 | 1.0 | 2.0 | 0.00 | 0.01 | 0.00 | 59 | 1011.2 | |
| 20260509084517 | 57 | 1.0 | 3.0 | 0.00 | 0.01 | 0.00 | 59 | 1011.3 | |
| 20260509083518 | 57 | 2.0 | 4.0 | 0.00 | 0.01 | 0.00 | 59 | 1011.4 | |
| 20260509082538 | 57 | 2.0 | 4.0 | 0.00 | 0.01 | 0.00 | 59 | 1011.4 | |
| 20260509081538 | 57 | 2.0 | 4.0 | 0.00 | 0.01 | 0.00 | 59 | 1011.6 | |
| 20260509080519 | 57 | 2.0 | 5.0 | 0.00 | 0.01 | 0.00 | 60 | 1011.6 | |
| 20260509074509 | 57 | 2.0 | 3.0 | 0.00 | 0.01 | 0.00 | 60 | 1011.7 | |
| 20260509073518 | 57 | 2.0 | 4.0 | 0.00 | 0.01 | 0.00 | 60 | 1011.7 | |
| 20260509072519 | 57 | 2.0 | 4.0 | 0.00 | 0.01 | 0.00 | 60 | 1011.7 | |
| 20260509071520 | 57 | 2.0 | 4.0 | 0.00 | 0.01 | 0.00 | 61 | 1011.6 | |
| 20260509070520 | 57 | 2.0 | 4.0 | 0.00 | 0.01 | 0.00 | 60 | 1011.6 | |
| 20260509065519 | 57 | 2.0 | 5.0 | 0.00 | 0.01 | 0.00 | 61 | 1011.5 | |
| 20260509064516 | 56 | 2.0 | 4.0 | 0.00 | 0.01 | 0.00 | 61 | 1011.6 | |
| 20260509063541 | 56 | 2.0 | 4.0 | 0.00 | 0.01 | 0.00 | 62 | 1011.8 | |
| 20260509062520 | 56 | 2.0 | 4.0 | 0.00 | 0.01 | 0.00 | 63 | 1011.9 | |
| 20260509061517 | 56 | 2.0 | 3.0 | 0.00 | 0.01 | 0.00 | 63 | 1011.9 | |
| 20260509060517 | 56 | 2.0 | 4.0 | 0.00 | 0.01 | 0.00 | 63 | 1012.0 | |
| 20260509055518 | 55 | 2.0 | 3.0 | 0.00 | 0.01 | 0.00 | 64 | 1012.0 | |
| 20260509054511 | 55 | 1.0 | 2.0 | 0.00 | 0.01 | 0.00 | 64 | 1012.1 | |
| 20260509053541 | 55 | 1.0 | 3.0 | 0.00 | 0.01 | 0.00 | 64 | 1012.2 | |
| 20260509052518 | 55 | 1.0 | 3.0 | 0.00 | 0.01 | 0.00 | 63 | 1012.2 | |
| 20260509051518 | 55 | 1.0 | 2.0 | 0.00 | 0.01 | 0.00 | 63 | 1012.1 | |
| 20260509050520 | 55 | 1.0 | 2.0 | 0.00 | 0.01 | 0.00 | 62 | 1012.3 | |
| 20260509045518 | 55 | 1.0 | 4.0 | 0.00 | 0.01 | 0.00 | 62 | 1012.2 | |
| 20260509044518 | 56 | 1.0 | 3.0 | 0.00 | 0.01 | 0.00 | 62 | 1012.2 | |
| 20260509043521 | 56 | 1.0 | 2.0 | 0.00 | 0.01 | 0.00 | 62 | 1012.2 | |
| 20260509042519 | 56 | 2.0 | 3.0 | 0.00 | 0.01 | 0.00 | 61 | 1012.2 | |
| 20260509041520 | 56 | 2.0 | 3.0 | 0.00 | 0.01 | 0.00 | 61 | 1012.2 | |
| 20260509040520 | 56 | 2.0 | 2.0 | 0.00 | 0.01 | 0.00 | 61 | 1012.2 | |
| 20260509035519 | 56 | 2.0 | 4.0 | 0.00 | 0.01 | 0.01 | 61 | 1012.3 | |
| 20260509034519 | 56 | 1.0 | 2.0 | 0.00 | 0.01 | 0.01 | 61 | 1012.4 |